Location: Oberkirch
(48.5323°N, 8.0787°E)
Time: 21:06:40
(UTC+00:00)

Tiros 1 - Pass Details

Date: 25 February 2026
Orbit: 618 x 649 km, 48.4° (Epoch: 5 March)

Event Time Altitude Azimuth Distance (km) Brightness Sun altitude
Rises 07:28:58 0° 261° (W) 2,922 10.0 10.3°
Reaches altitude 10° 07:31:18 10° 261° (W) 2,010 9.2 10.7°
Maximum altitude 07:35:56 86° 176° (S) 633 7.4 11.4°
Drops below altitude 10° 07:40:32 10° 85° (E) 1,993 10.8 12.0°
Sets 07:42:50 0° 85° (E) 2,896 11.5 12.4°
